[ hide orbit diagram ]
For accurate long-term ephemerides, please instead use our Horizons system.This orbit viewer was implemented using two-body methods, and hence should not be used for determining accurate long-term trajectories (over several years or decades) or planetary encounter circumstances.
Orbital Elements at Epoch 2459000.5 (2020-May-31.0) TDB
Reference: JPL 10 (heliocentric ecliptic J2000)
Element | Value | Uncertainty (1-sigma) | Units |
e | .1040152285855783 | 9.1929e-08 | |
a | 3.110151693698801 | 6.1133e-08 | au |
q | 2.786648554342896 | 3.2415e-07 | au |
i | 12.22796786652071 | 7.8242e-06 | deg |
node | 35.6107414939698 | 3.4753e-05 | deg |
peri | 270.5647990295959 | 5.9668e-05 | deg |
M | 338.2780394686104 | 4.2112e-05 | deg |
tp | 2459121.383577395016 (2020-Sep-28.88357740) | 0.00023294 | TDB |
period | 2003.414369495755 5.49 | 5.9069e-05 1.617e-07 | d yr |
n | .1796932304576658 | 5.2981e-09 | deg/d |
Q | 3.433654833054705 | 6.7492e-08 | au |
|
| | Orbit Determination Parameters
Additional Information
|
[ hide covariance matrix ]
Orbital Elements at Epoch 2457932.5 (2017-Jun-28.0) TDB
Reference: JPL 10 (heliocentric ecliptic J2000)
Element | Value | Uncertainty (1-sigma) | Units |
e | .1031502882954181 | 9.2625e-08 | |
q | 2.786094000686773 | 3.2564e-07 | au |
tp | 2457126.185005798532 (2015-Apr-13.68500580) | 0.0002618 | TDB |
node | 35.65306491463424 | 3.4708e-05 | deg |
peri | 271.4121141919794 | 5.9657e-05 | deg |
i | 12.23984632246603 | 7.8307e-06 | deg |
|
| | Orbit Determination Parameters
Additional Information
|
Orbit Covariance (6×6)
|
|
e |
q |
tp |
node |
peri |
i |
e |
8.579390207320773E-15 |
-2.991377900209917E-14 |
1.231826135627746E-11 |
6.649923813108604E-15 |
2.280300380876928E-12 |
-4.00206329988522E-14 |
q |
-2.991377900209917E-14 |
1.060442859172252E-13 |
-4.645577966967613E-11 |
-1.818050090604503E-14 |
-8.470153650300264E-12 |
1.427073430747976E-13 |
tp |
1.231826135627746E-11 |
-4.645577966967613E-11 |
6.853755412131007E-8 |
8.179131345769225E-12 |
1.273687917506922E-8 |
-6.799370662908512E-11 |
node |
6.649923813108604E-15 |
-1.818050090604503E-14 |
8.179131345769225E-12 |
1.204678387083367E-9 |
-1.175610569508937E-9 |
-8.233369078983572E-12 |
peri |
2.280300380876928E-12 |
-8.470153650300264E-12 |
1.273687917506922E-8 |
-1.175610569508937E-9 |
3.558990408065335E-9 |
-4.042580745528598E-12 |
i |
-4.00206329988522E-14 |
1.427073430747976E-13 |
-6.799370662908512E-11 |
-8.233369078983572E-12 |
-4.042580745528598E-12 |
6.131971944138767E-11 |
|
Physical Parameter Table
Parameter |
Symbol |
Value |
Units |
Sigma |
Reference |
Notes |
absolute magnitude |
H |
16.3 |
|
n/a |
MPO471274 |
|
|
312744 (2010 TM35) Discovered 2008-Apr-01 by Mt. Lemmon Survey at Mount Lemmon |
Reference: 20120109/Numbers.arc | Last Updated: 2012-01-11 |
|
[ show close-approach data ]
Alternate Designations
2010 TM35 = 2008 GQ22 = 2010 OE21 |
|
|